Lapse_Rate
6.4 6.1 6.1 6.2 5.8 6.2 5.5 8.8 6.7 9.2 9.7 6.9 7.0 6.5 6.5 5.9 6.7 7.4 6.7 6.7 6.5 6.5 6.5 6.5 6.5 6.5 6.5 7.2 6.9 6.5 6.5 6.5 6.5 6.5 6.5 6.5 6.5 6.5 6.5 6.5 6.5 6.5 6.5 6.5
6.0 6.0 6.1 6.0 6.0 6.2 9.6 8.2 8.0 9.3 9.1 6.5 6.5 6.7 6.5 7.0 6.6 6.5 6.5 6.5 6.5 6.5 6.5 6.5 6.5 6.5 7.0 7.2 6.5 6.5 6.5 6.5 6.5 6.5 6.5 6.5 6.5 6.5 6.5 6.5 6.5 6.5 6.5 6.5
6.0 5.8 5.9 6.1 6.0 6.4 8.2 8.3 6.5 7.8 8.1 8.1 6.6 6.5 6.5 6.5 7.2 6.9 7.0 6.6 6.7 6.5 6.5 6.5 6.5 6.5 6.6 7.2 7.1 3.4 6.7 6.5 6.5 6.5 6.5 6.5 6.5 6.5 6.5 6.5 6.5 6.5 6.5 6.5
5.8 5.9 6.0 6.0 6.1 6.3 7.7 8.4 6.8 7.7 6.5 6.7 6.7 6.6 6.5 6.5 6.5 6.9 7.1 6.5 6.5 6.5 6.5 6.5 6.5 6.5 6.5 6.8 5.4 6.6 6.5 6.5 6.5 6.5 6.5 6.5 6.5 6.5 6.5 6.5 6.5 6.5 6.5 6.5
6.2 6.4 6.3 5.6 5.8 6.4 8.8 7.4 7.1 7.9 7.2 7.3 6.7 6.5 6.5 6.5 6.5 6.6 6.5 6.5 6.5 6.5 6.5 6.5 6.5 6.5 6.5 6.5 6.7 6.5 6.6 6.5 6.5 6.5 6.5 6.5 6.5 6.5 6.5 6.5 6.5 6.5 6.5 6.5
6.3 6.1 6.1 6.4 6.1 6.9 8.9 9.1 8.9 8.2 6.7 6.8 6.5 6.5 6.5 6.5 6.7 6.9 7.1 6.7 6.5 6.5 6.6 6.7 7.1 7.3 7.1 6.9 6.5 6.5 6.5 6.5 6.5 6.5 6.5 6.5 6.5 6.5 6.5 6.5 6.5 6.5 6.5 6.5
6.5 6.4 6.2 6.2 5.9 6.9 9.5 9.2 9.0 7.5 6.5 6.5 6.5 6.5 6.9 6.5 6.7 6.5 7.1 7.3 6.6 7.3 8.2 8.1 7.8 7.4 7.2 7.1 6.8 7.1 6.5 6.5 6.5 6.5 6.5 6.5 6.5 6.5 6.5 6.5 6.5 6.5 6.5 6.5
6.3 6.2 6.2 6.2 6.0 5.8 8.5 8.7 8.7 7.8 6.5 7.1 6.7 6.8 6.7 7.2 7.3 6.9 7.0 7.3 7.8 8.2 7.6 6.5 6.5 6.5 6.5 6.5 6.5 6.5 6.7 6.5 6.5 6.5 6.5 6.5 6.5 6.5 6.5 6.5 6.5 6.5 6.5 6.6
6.4 6.3 6.1 6.1 6.0 5.7 7.8 9.3 8.7 8.3 7.1 6.6 7.5 6.9 7.2 6.5 6.5 6.5 7.1 8.0 8.2 7.9 6.6 6.5 6.5 6.5 6.5 6.5 6.5 6.7 6.5 6.5 6.5 6.5 6.5 6.5 6.5 6.5 7.2 6.8 6.5 6.9 7.0 6.8
6.3 6.0 6.0 5.9 6.0 6.0 8.0 8.2 7.3 8.7 7.3 7.9 7.9 6.8 6.8 7.5 7.0 6.5 7.0 7.2 7.3 7.9 6.5 6.5 6.5 6.5 6.5 6.5 6.5 6.5 6.5 6.5 6.5 6.5 6.5 6.5 6.5 6.9 7.3 6.5 6.5 7.1 7.3 7.3
6.1 6.1 6.1 6.1 6.1 6.2 8.1 8.7 6.6 8.6 7.7 7.9 8.4 8.4 7.6 7.6 7.4 6.5 7.1 6.9 7.0 6.6 6.5 6.5 6.5 6.5 6.5 6.5 6.5 6.5 6.5 6.5 6.5 6.5 6.5 6.5 7.1 6.8 6.5 6.7 7.3 7.5 7.6 7.6
6.3 6.3 6.2 6.3 6.2 6.6 7.1 8.7 7.7 7.4 7.3 5.8 6.8 8.1 8.2 7.2 7.9 7.7 7.6 7.1 7.1 7.2 6.5 6.5 6.5 6.5 6.5 6.5 6.5 6.5 6.5 6.5 6.5 6.5 6.5 6.9 7.4 7.1 7.7 7.9 7.5 7.6 7.7 7.9
6.5 6.6 6.3 6.5 6.5 6.7 7.2 9.2 7.6 7.8 5.9 6.0 7.1 7.8 8.6 6.0 7.3 7.2 7.3 7.8 8.0 7.6 7.8 6.8 6.5 6.5 6.5 6.5 6.5 6.5 6.5 7.0 6.5 6.5 6.6 6.8 7.3 7.8 8.0 8.1 7.9 8.1 8.2 7.3
6.8 6.9 6.5 6.4 6.4 6.5 6.8 8.5 7.8 7.9 6.3 6.4 6.5 6.2 6.5 6.8 6.2 7.3 7.8 8.3 8.2 8.3 8.2 6.9 6.5 6.5 7.0 6.5 6.5 6.5 6.7 6.6 6.5 6.5 6.7 7.2 7.6 7.9 7.9 8.0 8.2 8.1 8.3 7.2
7.1 7.0 6.8 6.5 6.6 6.8 7.3 7.9 7.8 8.0 7.8 6.4 6.9 6.4 8.0 6.6 6.8 7.9 8.6 8.4 8.2 7.7 7.0 6.6 6.5 6.9 6.7 6.7 6.6 6.5 7.1 6.5 6.5 6.5 7.0 7.0 7.2 7.9 8.2 8.0 8.0 8.3 8.1 7.5
7.2 7.1 6.8 6.8 6.8 6.7 7.8 6.9 7.8 7.7 8.2 6.1 6.5 5.7 8.2 7.0 7.7 8.6 8.4 8.4 8.2 8.0 7.2 6.9 7.2 7.7 7.1 6.5 6.5 6.9 7.7 7.9 7.9 7.0 7.9 7.9 7.9 8.1 8.4 8.2 8.4 8.3 7.9 8.7
7.2 7.1 7.0 6.9 6.8 7.4 8.2 7.8 9.0 7.3 6.9 5.8 6.7 7.1 7.6 8.6 8.5 8.1 8.1 8.3 8.2 7.9 7.3 7.0 7.0 7.1 7.1 6.5 6.5 7.1 7.6 7.9 7.9 8.2 8.1 7.3 7.9 7.7 8.4 8.5 8.5 8.1 8.8 8.8
7.2 7.1 6.9 6.8 6.8 7.5 7.6 8.2 7.0 7.4 6.1 5.9 6.5 6.5 6.8 6.8 7.2 7.1 8.0 7.5 7.8 7.7 7.2 7.3 7.0 7.4 6.9 6.5 6.9 7.6 8.0 8.0 8.1 8.2 8.4 8.2 8.5 8.4 8.5 8.7 8.7 8.4 8.4 8.6
7.0 7.0 6.9 7.5 7.6 7.4 8.7 8.5 7.2 8.3 7.4 6.4 6.9 6.5 6.5 6.2 7.1 7.2 7.4 7.7 6.5 7.7 6.6 6.8 7.1 6.5 6.5 6.6 7.1 7.5 7.8 7.8 7.7 8.2 8.4 8.4 8.0 8.1 8.3 8.4 8.4 8.3 8.4 8.5
7.0 7.5 6.9 5.9 7.7 9.2 7.8 7.1 6.5 6.3 6.7 7.7 6.7 7.7 6.5 7.3 7.1 6.8 6.9 7.2 6.5 6.5 6.6 7.6 6.5 6.5 7.5 7.8 8.0 8.2 8.2 8.2 8.2 7.6 7.4 7.7 7.6 7.9 8.1 8.3 8.5 8.5 8.5 8.6
7.3 5.5 5.3 7.2 8.8 8.1 6.6 6.2 6.5 6.2 6.6 7.4 7.6 7.4 6.7 8.0 6.5 6.5 7.2 6.5 6.5 6.5 6.5 6.5 6.5 6.5 6.6 7.9 8.4 8.6 8.5 8.6 8.4 8.4 8.4 8.3 8.3 8.2 8.1 8.2 8.4 8.5 8.6 8.5
5.9 6.0 6.4 6.6 7.0 6.3 6.4 6.5 6.7 6.5 6.5 7.3 6.9 7.4 7.6 7.6 8.0 6.9 7.0 6.5 6.5 6.5 6.9 6.5 6.5 6.5 7.5 7.8 7.9 8.1 8.3 8.4 8.4 8.6 8.4 8.3 8.3 8.4 8.4 8.4 8.5 8.6 8.7 8.5
6.3 7.1 5.8 6.3 6.5 6.5 6.5 6.5 6.5 6.5 6.9 7.3 7.4 6.5 7.0 7.2 7.7 6.8 6.5 6.5 6.5 7.0 6.5 6.5 6.5 7.0 7.7 7.8 7.9 7.9 8.3 8.3 8.3 8.4 8.5 8.3 8.2 8.6 8.4 8.5 8.7 8.8 8.7 8.8
5.6 6.6 6.5 6.5 6.5 6.5 6.5 6.5 6.5 7.3 7.5 7.6 7.6 7.0 6.8 7.3 6.6 6.5 6.5 6.5 6.5 6.5 6.5 6.5 6.5 7.1 7.6 7.9 8.1 7.9 7.9 8.1 8.2 8.1 8.2 8.2 8.3 8.3 8.5 7.4 7.7 7.1 6.6 5.7
6.8 6.6 6.5 6.5 6.9 7.3 7.3 7.7 7.7 8.0 8.2 8.1 6.9 6.8 7.0 6.5 6.5 6.5 6.5 6.5 6.5 6.5 6.5 6.5 6.9 7.6 7.8 7.8 7.9 8.0 8.0 7.6 8.1 8.3 8.2 5.0 5.3 6.3 6.2 5.7 7.0 5.5 2.4 2.3
5.9 7.2 6.5 6.8 6.6 6.5 6.5 7.1 7.1 8.2 8.2 8.0 7.7 6.5 6.5 6.5 6.5 6.5 6.5 6.5 6.5 6.5 6.5 7.2 7.6 7.6 7.8 7.9 8.0 8.1 8.3 8.4 8.4 8.5 8.1 6.9 5.8 6.2 5.6 7.0 6.7 2.1 2.7 1.8
7.1 6.6 7.5 7.4 7.1 6.8 7.0 7.5 7.7 8.8 8.0 6.5 6.6 6.5 6.5 6.5 6.5 6.5 6.5 6.5 6.5 6.8 7.2 7.6 7.9 7.8 7.9 8.1 7.6 6.7 8.0 8.4 8.5 8.5 8.6 8.5 7.8 8.3 7.7 6.9 3.8 5.0 4.0 2.8
Wind_Speed
25 24 24 23 22 19 8 7 6 7 12 8 5 11 13 12 13 9 8 7 7 8 7 7 4 1 8 7 6 6 5 4 8 2 3 4 5 5 2 2 3 3 2 7
27 25 24 24 25 26 9 7 5 5 13 10 10 12 13 12 12 17 12 8 7 5 7 8 5 2 4 5 5 7 4 4 6 4 2 1 4 2 5 6 3 9 5 5
27 25 25 25 28 31 7 5 3 4 8 15 18 17 13 13 4 10 9 5 3 4 6 3 3 3 4 5 6 5 3 7 8 8 6 4 8 10 11 10 4 9 12 19
29 26 26 26 27 28 6 6 6 9 6 14 17 19 13 17 11 6 8 10 12 12 5 10 10 10 7 6 3 2 4 8 11 12 13 12 13 15 15 16 16 16 17 19
26 24 24 30 31 26 8 5 3 3 6 16 20 14 20 21 18 12 8 12 17 12 11 11 7 10 11 6 4 4 3 6 6 3 13 15 15 19 18 18 18 18 17 15
27 27 28 26 24 21 8 8 4 6 5 16 15 17 17 22 19 15 14 16 10 10 15 5 7 1 3 2 5 6 4 4 4 10 10 6 11 15 16 14 12 10 12 13
28 28 28 26 27 29 7 6 6 6 5 11 15 21 19 15 22 15 12 12 13 7 5 5 2 4 8 11 11 11 9 6 4 4 8 5 11 2 4 6 7 9 8 13
29 28 29 28 27 29 9 5 7 7 7 10 14 16 19 17 10 18 10 5 3 6 6 3 5 6 6 15 16 14 12 6 2 4 9 11 15 8 7 5 9 4 2 8
28 28 28 27 25 24 11 4 6 4 8 9 12 13 14 13 14 11 13 5 3 4 3 4 5 7 9 6 5 4 3 4 5 5 6 5 2 5 4 4 10 8 6 7
29 29 29 27 25 24 13 6 5 4 4 6 9 9 11 12 13 12 13 9 6 7 6 6 7 8 7 6 8 7 4 3 10 10 5 8 11 8 2 3 2 2 4 4
30 30 29 27 27 24 13 9 6 6 5 6 6 9 6 10 8 7 5 9 5 7 7 6 3 5 7 13 15 12 10 7 5 7 5 8 5 6 5 4 2 3 5 2
31 30 29 27 26 26 24 6 9 3 2 3 5 9 7 5 8 5 8 7 10 7 6 6 4 6 5 11 11 15 11 11 6 7 5 5 4 3 3 4 7 6 4 6
30 30 29 28 27 26 24 9 7 4 3 3 5 9 5 4 4 3 4 4 5 4 3 3 4 8 6 9 11 15 9 9 7 8 9 13 8 5 7 5 5 1 5 10
28 28 28 28 28 28 28 10 7 6 3 2 4 2 5 1 4 5 7 8 3 2 3 5 4 5 3 7 5 8 3 5 10 12 13 12 16 14 6 4 5 6 8 8
28 28 28 29 28 29 23 11 8 12 6 3 1 4 9 3 4 6 5 6 7 5 3 3 3 4 3 2 3 7 9 11 9 9 9 10 11 8 1 8 9 9 9 9
29 28 28 29 28 28 9 5 8 19 8 3 1 4 7 7 7 7 4 2 3 3 2 3 3 1 4 4 5 8 15 18 19 15 15 16 8 2 6 7 10 11 11 9
29 29 29 30 30 15 11 4 5 23 4 3 1 2 2 8 5 2 3 2 4 4 3 4 5 4 4 6 14 15 14 15 17 17 16 8 9 7 8 8 11 13 11 10
31 30 29 29 31 14 10 4 20 25 4 3 3 2 2 2 4 5 4 3 3 4 3 3 7 8 5 7 11 16 20 24 24 24 22 19 14 8 10 11 13 14 13 12
32 31 31 10 9 7 12 13 22 15 4 4 3 7 5 5 2 2 3 3 4 3 5 9 7 10 10 9 13 16 20 22 23 20 20 21 16 12 13 14 16 15 14 13
36 17 6 5 7 14 23 4 7 5 4 4 5 8 6 8 4 3 4 3 4 4 6 5 10 17 22 22 20 19 21 20 20 20 20 16 13 14 16 18 14 14 14 14
9 5 3 4 28 5 5 4 5 3 6 5 10 8 6 7 6 4 5 4 5 4 5 5 5 7 11 20 28 26 24 24 23 21 20 13 13 14 16 16 15 14 15 13
9 7 5 6 5 4 6 5 6 5 7 7 15 14 8 6 5 4 5 5 5 7 5 4 5 6 15 19 18 19 17 18 20 21 20 16 17 14 15 15 15 15 14 13
5 7 6 4 6 9 9 14 5 9 5 9 11 12 6 4 7 4 6 8 7 5 4 5 7 11 13 13 11 10 11 12 14 17 19 12 12 14 15 16 15 16 15 14
5 7 9 6 7 10 7 16 16 11 9 11 14 9 5 5 9 5 6 6 5 6 7 16 8 13 16 16 13 8 9 9 9 10 12 13 14 15 15 13 14 12 12 11
4 4 10 7 9 13 12 13 16 14 14 14 12 5 4 6 4 5 6 6 7 8 16 12 8 12 12 8 6 8 8 6 9 12 12 9 11 13 12 11 14 13 12 12
2 5 6 5 10 11 10 11 13 13 13 13 12 4 6 4 5 7 7 5 8 12 10 7 8 8 6 5 5 6 7 9 10 11 13 15 15 15 17 16 14 11 12 12
6 4 7 10 8 11 10 12 12 13 15 10 6 10 7 6 6 10 7 13 14 7 7 5 8 6 5 4 5 5 8 11 12 14 15 16 16 16 17 16 14 14 12 10
Wind_Direction
174 170 167 169 164 168 186 181 211 150 172 185 200 224 195 221 211 203 247 275 274 197 189 283 280 39 44 4 332 293 56 307 263 119 52 355 312 313 281 293 288 265 318 273
170 171 170 168 167 176 182 195 191 172 196 204 216 221 218 243 237 197 192 214 252 233 182 199 251 213 57 22 21 9 359 266 254 253 212 192 227 219 306 295 357 266 272 276
170 170 171 173 176 195 240 207 154 154 213 236 208 208 212 206 213 269 209 214 212 206 187 255 175 239 112 47 51 324 281 268 271 279 303 219 268 284 281 260 219 264 267 293
170 172 173 178 185 201 212 225 204 185 185 215 223 205 203 208 182 219 245 209 229 218 219 244 240 252 200 176 149 248 316 266 279 295 308 300 287 278 271 265 245 252 276 292
175 175 180 178 184 194 212 207 185 215 200 205 213 216 208 214 203 175 204 227 209 203 229 222 252 262 250 221 188 242 208 273 278 294 280 267 271 267 264 260 261 269 279 285
176 173 176 183 188 185 205 226 173 230 218 178 210 212 217 218 203 200 202 205 230 233 234 322 350 246 352 303 265 265 275 261 249 269 266 295 284 260 249 256 264 260 286 309
180 177 176 182 187 194 208 203 211 234 208 211 199 211 216 211 222 224 219 218 216 203 107 108 171 252 257 257 249 250 237 234 255 257 278 246 242 306 337 302 295 295 331 356
183 179 179 183 188 200 221 238 224 225 222 215 219 211 207 220 190 222 202 191 315 147 151 196 232 224 247 241 240 232 227 247 247 242 236 265 275 271 265 266 284 47 29 12
183 179 180 184 187 193 206 230 244 276 231 216 229 209 206 203 211 187 194 140 131 157 168 193 216 216 214 179 140 333 37 244 202 212 246 240 79 136 57 332 266 89 52 359
184 181 182 181 183 186 199 217 243 225 242 258 221 222 215 208 198 211 196 160 181 203 204 217 215 223 243 207 204 167 171 197 221 230 256 265 272 121 158 215 70 107 343 322
183 180 179 179 180 181 193 208 184 233 222 262 229 270 257 246 196 190 176 188 209 188 212 207 194 243 234 238 240 175 185 194 188 215 234 257 233 149 221 74 85 299 296 240
182 177 176 176 178 182 188 203 196 148 302 335 315 306 331 335 354 306 185 206 170 195 204 210 199 218 232 226 246 235 219 223 210 209 219 140 185 349 20 326 311 307 223 166
181 177 174 176 181 184 187 206 159 164 104 320 271 236 225 278 267 339 255 230 244 227 307 240 237 242 236 231 234 248 226 239 260 261 264 251 223 250 240 257 284 127 167 176
182 178 175 176 181 184 187 201 184 162 108 233 249 241 244 0 262 247 258 282 247 253 233 237 230 237 238 253 270 254 261 212 234 257 264 281 276 275 323 138 145 156 170 180
185 179 175 175 179 186 191 200 202 191 189 180 213 264 215 217 228 237 238 241 229 230 218 226 248 254 257 254 310 251 255 244 249 247 257 255 290 295 85 167 185 184 184 193
185 180 176 175 178 181 171 200 225 206 210 138 278 322 205 198 225 234 221 263 267 245 257 218 198 233 251 228 232 236 240 249 243 246 247 289 318 208 183 195 179 172 184 182
183 178 176 178 178 177 187 196 168 176 142 120 181 234 209 213 198 213 241 280 251 262 238 228 254 212 216 257 256 257 257 221 247 254 256 238 219 225 199 187 167 171 174 161
179 176 176 179 180 180 219 216 156 150 104 140 187 130 206 237 180 189 181 214 222 230 228 231 244 249 213 252 250 238 240 253 255 255 250 250 252 203 189 174 169 173 171 170
174 173 173 168 184 199 203 175 172 172 152 175 184 175 188 170 151 124 157 187 214 231 238 228 231 226 228 231 241 245 240 237 243 251 252 246 215 208 190 190 183 181 181 175
173 159 176 173 191 145 121 131 189 211 190 187 211 227 169 181 155 131 136 194 220 228 228 232 240 247 253 260 269 260 252 256 252 254 248 239 209 196 194 198 190 190 180 175
172 172 154 166 138 145 177 183 193 149 162 203 201 195 138 193 167 151 203 193 193 243 205 216 238 248 231 236 239 248 256 258 256 255 248 214 210 207 198 192 187 184 174 173
149 124 142 139 150 188 177 190 168 203 180 174 195 178 154 164 158 164 181 200 203 236 135 213 248 251 239 246 252 258 257 254 251 242 245 199 200 206 198 185 176 175 168 161
149 185 146 173 172 178 192 168 195 178 191 181 191 161 131 147 198 152 180 208 215 151 216 239 249 257 261 269 270 264 272 265 250 234 229 211 185 189 174 172 168 163 160 161
173 168 149 212 171 180 190 192 189 176 160 175 167 150 158 177 190 162 203 211 179 222 239 246 243 248 261 266 268 261 250 238 223 197 182 172 167 159 161 162 157 157 151 140
176 198 191 207 196 171 194 181 177 171 173 157 159 161 118 176 153 198 206 191 218 225 243 249 246 253 262 276 247 238 229 199 193 175 164 129 133 140 138 139 153 138 131 138
242 203 176 187 193 168 166 170 171 168 162 161 162 157 175 179 177 182 199 214 225 237 235 248 260 248 242 230 215 217 194 181 173 160 147 147 146 154 150 150 142 144 144 145
194 194 179 157 166 168 168 167 162 164 161 170 178 183 186 163 205 208 208 223 237 246 252 248 249 230 188 181 170 168 166 174 162 151 159 154 155 150 150 150 153 156 152 140